Regional Weather Roundup
Issued by NWS

Home | Current Version | Previous Version | Graphics & Text | Print | Product List | Glossary On
Versions: 1 2 3 4 5 6 7 8 9 10 11 12 13 14 15 16 17 18 19 20 21 22 23 24 25 26 27 28 29 30 31 32 33 34 35 36 37 38 39 40 41 42 43 44 45 46 47 48 49 50
000
ASUS45 KSLC 032010
RWRUT
UTAH REGIONAL WEATHER ROUNDUP
NATIONAL WEATHER SERVICE SALT LAKE CITY UT
200 PM MDT MON AUG 03 2015

UTZ001>011-023>025-032100-

NORTHERN UTAH

CITY           SKY/WX    TMP DP  RH WIND       PRES   REMARKS
BRIGHAM CITY   CLOUDY    63  58  84 CALM      30.14R
HILL AFB       RAIN      59  59 100 VRB3      30.15R FOG
LOGAN          LGT RAIN  63  59  87 N6        30.13S
OGDEN          RAIN      62  60  93 W7        30.14R FOG
PROVO AIRPORT  PTSUNNY   63  55  77 VRB5      30.16S
SALT LAKE CITY LGT RAIN  64  59  83 W8        30.12F
VERNAL         CLOUDY    71  55  56 SW12      30.07F
WENDOVER       CLOUDY    73  55  53 E9        30.11S
HEBER CITY     CLOUDY    63  55  77 SW9       30.16R
WEST JORDAN    CLOUDY    64  59  82 E3        30.17R

$$

UTZ012>022-026-027-032100-

SOUTHERN/CENTRAL UTAH

CITY           SKY/WX    TMP DP  RH WIND       PRES   REMARKS
BLANDING       SUNNY     76  56  49 SW5       30.27F
BRYCE CANYON   PTSUNNY   78  42  27 NW8G23    30.29F
CEDAR CITY     MOSUNNY   87  40  19 W9        30.13F
DELTA          SUNNY     75  55  49 NE9       30.13S
HANKSVILLE     MOSUNNY   81  59  47 CALM      30.08F
MILFORD        SUNNY     87  47  24 S10       30.08F
MOAB/CYNLANDS  MOSUNNY   83  54  36 SW10G16   30.05F
PRICE          CLOUDY    71  50  47 W18G26    30.17R
ST GEORGE      CLOUDY    97  48  19 NW7       29.95F HX  93
KANAB          MOSUNNY   91  43  18 W12G22    30.14F

$$

REGIONAL REPORTS     COLORADO/ARIZONA

CITY           SKY/WX    TMP DP  RH WIND       PRES   REMARKS
CRAIG, CO      PTSUNNY   77  51  40 CALM      30.13F
GRAND JUNCTION CLOUDY    81  51  35 CALM      30.07F
RIFLE          TSTM      75  56  51 SE5       30.12F
MONTROSE       MOSUNNY   84  48  28 W9        30.16F
CORTEZ         SUNNY     81  53  37 S6        30.20F
PAGE, AZ       SUNNY     86  58  38 N6        30.06F
GRAND CANYON   PTSUNNY   81  41  24 VRB3      30.26F
KINGMAN        SUNNY     99  42  14 SW25G33   30.00F HX  94
FLAGSTAFF      PTSUNNY   80  40  23 SW16G24   30.31F

$$

REGIONAL REPORTS    NEVADA/IDAHO/WYOMING

CITY           SKY/WX    TMP DP  RH WIND       PRES   REMARKS
LAS VEGAS, NV  MOSUNNY  103  35   9 VRB7      29.82F HX  97
ELY            PTSUNNY   82  39  21 S10       30.15R
ELKO           MOSUNNY   87  39  18 S12G21    30.06F
POCATELLO, ID  SUNNY     74  52  46 S20G28    30.04S
BURLEY         CLOUDY    79  49  34 W9        30.02S
EVANSTON, WY   CLOUDY    58  53  84 N10       30.18S
ROCK SPRINGS   CLOUDY    67  52  58 S15G21    30.14F
KEMMERER       LGT RAIN  57  54  88 NE8       30.18F

$$


USA.gov is the U.S. government's official web portal to all federal, state and local government web resources and services.